Regional Weather Roundup
Issued by NWS

Home | Current Version | Previous Version | Text Only | Print | Product List | Glossary Off
Versions: 1 2 3 4 5 6 7 8 9 10 11 12 13 14 15 16 17 18 19 20 21 22 23 24 25 26 27 28 29 30 31 32 33 34 35 36 37 38 39 40 41 42 43 44 45 46 47 48 49 50

693
ASUS44 KJAN 301503
RWRMS

MISSISSIPPI HOURLY WEATHER ROUNDUP
NATIONAL WEATHER SERVICE JACKSON MS
1000 AM CDT MON MAR 30 2015

NOTE: "FAIR: INDICATES FEW OR NO CLOUDS BELOW 12,000 FEET WITH NO
SIGNIFICANT WEATHER AND/OR OBSTRUCTIONS TO VISIBILITY.

MSZ001>002-007>008-010>013-018>021-025>028-034>036-301600-
NORTHWEST MISSISSIPPI

CITY           SKY/WX    TMP DP  RH WIND       PRES   REMARKS
CLARKSDALE     FAIR      59  50  72 N8        30.25S
CLEVELAND      FAIR      64  51  62 NE12      30.24R
GREENWOOD      MOSUNNY   68  47  46 NE9       30.22R
GREENVILLE     SUNNY     66  47  50 NE20      30.23R
OXFORD         FAIR      59  48  67 NE6       30.26R
TUNICA         SUNNY     59  48  67 N8        30.26R
$$

MSZ003>006-009-014>017-022>024-029>033-037>039-301600-
NORTHEAST MISSISSIPPI

CITY           SKY/WX    TMP DP  RH WIND       PRES   REMARKS
COLUMBUS AFB   SUNNY     65  52  64 NE7       30.22R
CORINTH        FAIR      61  45  55 N9        30.23R
GOLDN TRIANGLE MOSUNNY   64  55  72 N9        30.22R
STARKVILLE     FAIR      63  54  72 N6        30.22S
TUPELO         SUNNY     61  49  64 NE9       30.23R
$$

MSZ040-058-301600-
CENTRAL MISSISSIPPI

CITY           SKY/WX    TMP DP  RH WIND       PRES   REMARKS
JACKSON INTL   PTSUNNY   66  62  87 W5        30.23R
JACKSON HAWKNS CLOUDY    65  61  87 W10       30.23S
MERIDIAN KEY   CLOUDY    65  61  87 VRB6      30.22R
MERIDIAN NAS   NOT AVBL
RAYMOND          N/A     64  59  82 SW5       30.23R
VICKSBURG      CLOUDY    66  61  84 SW6       30.23R
$$

MSZ059>079-301600-
SOUTH MISSISSIPPI

CITY           SKY/WX    TMP DP  RH WIND       PRES   REMARKS
BROOKHAVEN     PTSUNNY   72  64  78 W10       30.26S
HATTIESBURG    PTSUNNY   72  63  73 NW12      30.25S
MCCOMB         PTSUNNY   70  63  78 W10       30.25S
NATCHEZ        PTSUNNY   70  61  73 W10       30.26R
PINE BELT      PTSUNNY   68  61  77 W8G17     30.26S
$$

MSZ080>082-301600-
COASTAL MISSISSIPPI

CITY           SKY/WX    TMP DP  RH WIND       PRES   REMARKS
BAY ST LOUIS   MOSUNNY   73  59  60 W5        30.26S
BILOXI         SUNNY     75  63  66 SW7       30.25S
PASCAGOULA     MOSUNNY   75  62  64 W8        30.25S
GULFPORT       MOSUNNY   75  62  64 W8        30.24F
$$



USA.gov is the U.S. government's official web portal to all federal, state and local government web resources and services.